EW8332 Weather Reports


time (UTC)temp
C
wind
direction
speed
KPH
gust
KPH
rain 1hr
cm
rain 24hr
cm
rain mn
cm
humidity
%
barometer
mb
20260507013703 16 310 3.2 8.0 0.00 0.00 0.00 84 1014.1
20260507013203 16 356 1.6 19.3 0.00 0.00 0.00 84 1014.0
20260507003704 16 317 4.8 11.3 0.00 0.00 0.00 83 1013.3
20260507003204 17 325 4.8 19.3 0.00 0.00 0.00 83 1013.1
20260507000704 17 320 4.8 12.9 0.00 0.00 0.00 82 1013.1
20260507000205 17 324 6.4 22.5 0.00 0.00 0.00 81 1013.2
20260506233704 17 349 4.8 12.9 0.00 0.00 0.00 80 1012.9
20260506233204 17 355 3.2 19.3 0.00 0.00 0.00 80 1012.8
20260506223704 18 348 6.4 16.1 0.00 0.00 0.00 80 1012.7
20260506220704 18 339 8.0 20.9 0.00 0.00 0.00 77 1012.4
20260506220203 19 347 8.0 20.9 0.00 0.00 0.00 77 1012.3
20260506213704 21 333 8.0 14.5 0.00 0.00 0.00 71 1012.1
20260506213204 22 355 4.8 20.9 0.00 0.00 0.00 73 1012.1
20260506210704 22 346 8.0 20.9 0.00 0.00 0.00 72 1012.0
20260506210203 22 312 8.0 25.7 0.00 0.00 0.00 72 1012.1
20260506203704 23 310 12.9 20.9 0.00 0.00 0.00 71 1012.0
20260506203204 23 0 9.7 24.1 0.00 0.00 0.00 72 1012.0
20260506200704 23 304 9.7 24.1 0.00 0.00 0.00 73 1012.3
20260506193204 26 345 3.2 16.1 0.00 0.00 0.00 73 1011.6
20260506190703 28 314 3.2 8.0 0.00 0.00 0.00 70 1011.7
20260506190204 27 68 3.2 11.3 0.00 0.00 0.00 71 1011.8
20260506183704 27 348 3.2 8.0 0.00 0.00 0.00 74 1011.9
20260506183204 26 140 6.4 12.9 0.00 0.00 0.00 72 1011.9
20260506180704 26 112 1.6 4.8 0.00 0.00 0.00 76 1011.9
20260506180203 26 255 3.2 11.3 0.00 0.00 0.00 74 1012.0
20260506173703 25 138 3.2 4.8 0.00 0.00 0.00 77 1012.1
20260506173204 24 13 3.2 8.0 0.00 0.00 0.00 76 1012.0
20260506170704 21 54 3.2 14.5 0.00 0.00 0.00 84 1012.4
20260506170203 21 358 3.2 12.9 0.00 0.00 0.00 84 1012.5
20260506163203 20 313 3.2 20.9 0.00 0.00 0.00 86 1013.0
20260506160704 25 126 0.0 1.6 0.00 0.00 0.00 87 1012.8
20260506160204 25 29 0.0 4.8 0.00 0.00 0.00 86 1012.8
20260506153703 24 82 1.6 3.2 0.00 0.00 0.00 89 1012.6
20260506153204 24 53 0.0 4.8 0.00 0.00 0.00 89 1012.5
20260506150704 23 230 1.6 3.2 0.00 0.00 0.00 90 1011.5
20260506150204 23 111 0.0 4.8 0.00 0.00 0.00 90 1011.5
20260506143704 23 70 0.0 4.8 0.00 0.00 0.00 91 1011.3
20260506143203 23 153 1.6 4.8 0.00 0.00 0.00 91 1011.2
20260506140704 23 24 0.0 0.0 0.00 0.00 0.00 92 1011.4
20260506140204 23 24 0.0 9.7 0.00 0.00 0.00 92 1011.3
20260506130704 23 76 1.6 3.2 0.00 0.00 0.00 92 1010.1
20260506130204 23 80 1.6 4.8 0.00 0.00 0.00 92 1010.1
20260506123703 23 138 1.6 3.2 0.00 0.00 0.00 92 1009.9
20260506123204 23 141 1.6 3.2 0.00 0.00 0.00 92 1010.0
20260506120704 23 170 0.0 0.0 0.00 0.00 0.00 92 1010.0
20260506120204 23 170 0.0 3.2 0.00 0.00 0.00 92 1009.9
20260506113704 23 170 0.0 3.2 0.00 0.00 0.00 92 1009.8
20260506110704 23 168 3.2 4.8 0.00 0.00 0.00 91 1009.7
20260506110204 23 173 3.2 8.0 0.00 0.00 0.00 91 1009.6
20260506103703 23 170 3.2 11.3 0.00 0.00 0.00 91 1009.5
20260506100704 23 169 4.8 9.7 0.00 0.00 0.00 91 1009.4
20260506100204 23 172 4.8 11.3 0.00 0.00 0.00 90 1009.4
20260506093704 23 162 4.8 11.3 0.00 0.00 0.00 91 1009.2
20260506093204 23 185 6.4 16.1 0.00 0.00 0.00 90 1009.0
20260506090704 23 160 4.8 11.3 0.00 0.00 0.00 90 1009.1
20260506083704 23 169 4.8 11.3 0.00 0.00 0.00 90 1009.0
20260506070704 23 178 6.4 19.3 0.00 0.00 0.00 90 1009.5
20260506070203 23 161 8.0 22.5 0.00 0.00 0.00 90 1009.5
20260506060704 23 163 8.0 14.5 0.00 0.00 0.00 89 1009.7
20260506060204 23 168 4.8 19.3 0.00 0.00 0.00 89 1009.7
20260506050705 23 153 6.4 12.9 0.00 0.00 0.00 88 1009.8
20260506043704 24 160 4.8 14.5 0.00 0.00 0.00 89 1009.7
20260506043203 24 166 8.0 19.3 0.00 0.00 0.00 89 1009.7
20260506040704 24 156 8.0 19.3 0.00 0.00 0.00 88 1009.4
20260506040204 24 158 6.4 14.5 0.00 0.00 0.00 88 1009.3
20260506033204 24 150 3.2 11.3 0.00 0.00 0.00 89 1009.0
20260506030704 24 128 3.2 8.0 0.00 0.00 0.00 88 1008.6
20260506030204 24 144 3.2 8.0 0.00 0.00 0.00 88 1008.5
20260506023704 24 150 3.2 4.8 0.00 0.00 0.00 86 1008.3
20260506023204 24 136 3.2 9.7 0.00 0.00 0.00 85 1008.3
20260506020204 25 150 1.6 4.8 0.00 0.00 0.00 84 1007.6